Flag for Canada Weather past 2 weeks in Fort Simpson, Northwest Territories, Canada

Now
77 °F

Passing clouds.


Feels Like: 78 °F
Forecast: 59 / 82 °F
Wind: 5 mph from Northwest

Location: Fort Simpson

Current Time: May 22, 2015 at 2:49:25 PM

Latest Report: May 22, 2015 at 2:00 PM


Visibility: 15 mi

Pressure: 30.14 "Hg

Humidity: 36%

Dew point: 48 °F

Location of Fort SimpsonLocation

Historic Weather in Fort Simpson — Graph

°F

Fort Simpson temperature yesterday

Maximum temperature yesterday: 82 °F (at 4:00 PM)
Minimum temperature yesterday: 48 °F (at 6:00 AM)
Average temperature yesterday: 69 °F

Past Weeks' High & Low Weather Summary

 TemperatureHumidityPressure
High84 °F (May 19, 5:00 PM)87% (May 8, 4:00 AM)30.47 "Hg (May 8, 4:00 AM)
Low30 °F (May 16, 6:00 AM)9% (May 19, 6:00 PM)29.65 "Hg (May 14, 5:00 PM)
Average61 °F39%30.06 "Hg
* Reported May 7 1:00 PM — May 22 1:00 PM, Fort Simpson, Weather by CustomWeather, © 2015

Note: Actual official high and low records may vary slightly from our data, if they occured in-between our weather recording intervals... More about our weather records

Advertising

Fort Simpson weather history for previous 24 hours

 ConditionsComfort  
Time TempWeatherWind HumidityBarometerVisibility
1:00 PM
Fri, May 22
75 °FPassing clouds.3 mph34%30.14 "Hg15 mi
12:00 PM73 °FPassing clouds.6 mph36%30.14 "Hg15 mi
11:00 AM70 °FPassing clouds.No wind50%30.14 "Hg15 mi
10:00 AM66 °FPassing clouds.2 mph56%30.14 "Hg15 mi
9:00 AM63 °FPassing clouds.No wind68%30.14 "Hg15 mi
8:00 AM59 °FPartly sunny.2 mph68%30.13 "Hg15 mi
7:00 AM57 °FBroken clouds.6 mph82%30.12 "Hg15 mi
6:00 AM57 °FSprinkles. Partly sunny.3 mph77%30.11 "Hg15 mi
5:00 AM59 °FSprinkles. Passing clouds.9 mph68%30.10 "Hg15 mi
4:00 AM57 °FPassing clouds.3 mph63%30.08 "Hg15 mi
3:00 AM59 °FPartly cloudy.2 mph55%30.07 "Hg15 mi
2:00 AM63 °FPassing clouds.5 mph52%30.05 "Hg15 mi
1:00 AM66 °FPartly cloudy.10 mph43%30.05 "Hg15 mi
12:00 AM68 °FBroken clouds.17 mph38%30.05 "Hg15 mi
11:00 PM
Thu, May 21
68 °FBroken clouds.9 mph40%30.00 "Hg15 mi
10:00 PM72 °FBroken clouds.7 mph36%29.98 "Hg15 mi
9:00 PM75 °FBroken clouds.8 mph29%29.97 "Hg15 mi
8:00 PM81 °FBroken clouds.2 mph18%29.95 "Hg15 mi
7:00 PM81 °FPassing clouds.6 mph20%29.96 "Hg15 mi
6:00 PM81 °FPassing clouds.5 mph20%29.96 "Hg15 mi
5:00 PM77 °FScattered clouds.9 mph24%29.97 "Hg15 mi
4:00 PM82 °FPassing clouds.7 mph17%29.96 "Hg15 mi
3:00 PM81 °FPassing clouds.2 mph20%29.97 "Hg15 mi
2:00 PM79 °FPassing clouds.7 mph24%29.98 "Hg15 mi
Weather by CustomWeather, © 2015

See weather overviewHow to use our weather pages